CAPE
0 0 0 0 0 0 0 0 0 0 0 0 0 0 0 0 0 0 0 0 0 0 0 0 0 1 0 0 0 0 0 0 0 0 0 0 0 0 0 0 0 0 0 0 0 0 0
0 0 0 0 0 0 0 0 0 0 0 0 0 0 0 0 0 0 0 0 0 0 0 0 0 0 1 0 0 0 0 0 0 0 0 0 0 0 0 0 0 0 0 0 0 0 0
0 0 0 0 0 0 0 0 0 0 0 0 0 0 0 0 0 0 0 0 0 0 0 0 0 2 2 0 0 0 0 0 0 0 0 0 0 0 0 0 0 0 0 0 0 0 0
0 0 0 0 0 0 0 0 0 0 0 0 0 0 0 0 0 0 0 0 0 0 0 0 0 1 2 0 0 0 0 0 0 0 0 0 0 0 0 0 0 0 0 0 0 0 0
1 0 0 0 0 0 0 0 0 0 0 0 0 0 0 0 0 0 0 0 0 0 0 0 1 1 0 0 0 0 0 0 0 0 0 0 0 0 0 0 0 0 0 0 0 0 0
1 1 1 0 0 0 1 0 1 0 0 0 0 0 0 0 0 0 0 0 0 0 1 3 3 1 0 0 0 0 0 0 0 0 0 0 0 0 0 0 0 0 0 0 0 0 0
2 1 1 1 1 0 0 0 1 1 0 1 0 0 0 0 0 0 0 0 0 0 3 0 0 0 0 0 0 0 0 0 0 0 0 0 0 0 0 0 0 0 0 0 0 0 0
1 1 1 3 2 2 3 0 0 1 0 0 0 1 1 0 0 1 0 2 9 0 0 0 0 0 0 0 0 0 0 0 0 0 0 0 0 0 0 0 0 0 0 0 0 0 0
0 0 0 0 1 2 2 1 2 1 0 0 0 0 0 0 0 0 0 0 0 0 4 0 0 0 0 0 0 0 0 0 0 0 0 0 0 0 0 0 0 0 0 0 0 0 0
6 3 4 1 0 0 2 2 1 1 1 1 1 0 0 0 0 0 0 0 0 0 0 0 0 0 0 0 0 0 0 0 0 0 0 0 0 0 0 0 0 0 0 0 0 0 0
0 0 0 2 10 2 1 1 3 1 0 0 0 2 0 0 0 2 0 0 0 0 0 0 0 0 0 0 0 0 0 2 0 0 0 0 0 0 0 0 0 0 0 0 0 0 0
2 3 2 1 0 0 5 17 17 1 1 1 0 0 1 1 1 0 0 0 2 1 0 0 0 0 0 0 0 0 0 0 0 2 0 0 0 0 0 0 0 0 0 5 2 0 0
0 0 0 0 2 0 0 30 24 4 6 0 0 1 1 1 1 0 1 2 0 0 0 0 0 0 0 0 0 0 0 0 0 1 0 0 0 0 0 0 0 0 3 7 7 7 0
6 2 0 1 0 0 0 0 0 6 6 6 3 4 2 0 2 2 5 4 0 0 0 0 0 0 0 0 0 0 0 0 0 0 0 0 0 0 0 0 0 0 0 0 0 0 0
18 26 15 9 5 1 0 5 3 0 0 4 5 2 1 0 0 0 4 0 0 0 0 0 0 0 0 0 7 2 8 0 0 0 0 0 0 0 0 0 0 0 0 0 0 0 0
1 15 23 23 30 13 6 10 9 0 0 0 8 8 2 2 5 3 0 0 0 1 0 0 0 0 1 0 9 29 30 0 0 0 0 7 0 0 0 0 0 0 0 0 0 4 7
15 2 0 3 14 16 14 11 5 2 2 1 1 1 0 1 7 4 0 0 0 2 0 1 0 0 0 12 0 1 2 2 0 0 0 15 4 0 0 0 0 0 0 2 0 0 1
2 5 21 1 0 5 21 18 16 3 6 14 3 0 0 32 2 0 0 0 1 0 1 0 1 0 1 3 0 1 14 5 0 0 0 0 0 0 0 0 0 0 0 11 19 0 1
11 13 0 4 13 1 1 21 23 11 3 2 0 0 0 12 1 0 0 0 0 0 0 0 0 0 0 1 0 0 0 0 0 1 1 2 0 0 0 1 0 0 0 0 0 0 0
17 15 12 10 7 10 0 16 29 18 17 0 0 0 0 5 0 0 0 0 0 0 0 2 0 0 0 0 1 0 0 2 4 3 0 9 2 1 0 0 0 0 0 0 0 0 0
4 0 7 14 11 13 22 3 40 25 45 0 0 0 0 0 0 0 1 0 0 0 0 0 1 0 0 0 0 0 0 0 1 2 10 16 10 0 0 0 0 0 0 0 0 0 0
15 12 5 10 16 13 26 37 19 17 31 17 0 0 0 0 0 0 0 0 0 0 0 0 0 0 0 0 0 0 0 0 3 0 1 1 9 0 0 0 0 0 0 0 0 0 0
10 6 7 36 73 34 12 24 27 36 22 1 1 2 0 1 0 0 0 0 0 0 0 0 0 0 0 0 0 0 0 0 0 0 0 0 0 0 0 0 0 1 0 0 0 0 0
12 13 6 46 85 63 30 20 20 24 24 0 1 0 0 0 0 0 0 0 0 0 0 0 0 0 0 2 2 0 0 0 1 0 1 0 0 0 0 0 0 0 0 0 0 0 0
12 17 13 6 93 63 37 1 0 31 61 2 0 0 0 0 0 0 0 0 0 0 0 0 0 0 0 1 3 0 5 3 0 0 1 0 1 0 0 0 0 0 0 0 0 0 0
57 36 18 0 4 58 30 26 9 22 67 2 0 0 0 0 0 0 0 0 0 0 0 0 0 0 0 0 1 0 0 11 11 0 0 1 0 0 0 0 0 0 0 0 0 0 0
49 20 5 2 51 35 32 36 5 15 55 2 2 0 0 0 0 0 0 0 0 0 0 0 3 0 0 0 0 0 17 0 1 0 0 0 1 0 0 0 0 0 0 0 0 0 0
14 15 19 41 38 29 26 24 6 38 27 6 0 0 0 0 0 0 0 0 0 0 0 0 0 0 0 0 0 0 0 0 0 0 0 0 0 0 0 0 0 1 0 0 0 0 0
7 0 11 0 27 24 24 5 8 52 11 6 0 0 0 0 0 0 0 0 0 0 0 0 0 0 4 0 0 0 0 0 0 0 0 0 0 0 0 0 0 0 0 0 0 0 0
CIN
-0 -0 -0 -0 -0 -0 -0 -0 -0 -0 -0 -0 -0 -0 -0 -0 -0 -0 -0 -0 -0 -0 -0 -0 -0 -0 -0 -0 -0 -0 -0 -0 -0 -0 -0 -0 -0 -0 -0 -0 -0 -0 -0 -0 -0 -0 -0
-0 -0 -0 -0 -0 -0 -0 -0 -0 -0 -0 -0 -0 -0 -0 -0 -0 -0 -0 -0 -0 -0 -0 -0 -0 -0 -0 -0 -0 -0 -0 -0 -0 -0 -0 -0 -0 -0 -0 -0 -0 -0 -0 -0 -0 -0 -0
-0 -0 -0 -0 -0 -0 -0 -0 -0 -0 -0 -0 -0 -0 -0 -0 -0 -0 -0 -0 -0 -0 -0 -0 -0 -0 -0 -0 -0 -0 -0 -0 -0 -0 -0 -0 -0 -0 -0 -0 -0 -0 -0 -0 -0 -0 -0
-9 -1 -0 -0 -0 -0 -0 -0 -0 -0 -0 -0 -0 -0 -0 -0 -0 -0 -0 -0 -0 -0 -0 -0 -0 -2 -0 -0 -0 -0 -0 -0 -0 -0 -0 -0 -0 -0 -0 -0 -0 -0 -0 -0 -0 -0 -0
-0 -0 -0 -0 -0 -0 -0 -0 -0 -0 -0 -0 -0 -0 -0 -0 -0 -0 -0 -0 -0 -0 -0 -0 -0 -0 -0 -0 -0 -0 -0 -0 -0 -0 -0 -0 -0 -0 -0 -0 -0 -0 -0 -0 -0 -0 -0
-0 -0 -0 -0 -0 -0 -0 -0 -0 -1 -1 -0 -0 -0 -0 -0 -0 -0 -0 -0 -0 -0 -0 -0 -0 -0 -0 -0 -0 -0 -0 -0 -0 -0 -0 -0 -0 -0 -0 -0 -0 -0 -0 -0 -0 -0 -0
-0 -0 -0 -0 -0 -0 -0 -0 -0 -1 -0 -0 -0 -0 -2 -0 -0 -0 -0 -0 -0 -0 -0 -0 -0 -0 -0 -0 -0 -0 -0 -0 -0 -0 -0 -0 -0 -0 -0 -0 -0 -0 -0 -0 -0 -0 -0
-0 -0 -0 -0 -0 -0 -0 -0 -0 -0 -0 -0 -0 -0 -0 -0 -0 -0 -0 -0 -0 -0 -0 -0 -0 -0 -0 -0 -0 -0 -0 -0 -0 -0 -0 -0 -0 -0 -0 -0 -0 -0 -0 -0 -0 -0 -0
-0 -0 -0 -0 -0 -0 -0 -0 -0 -0 -0 -0 -0 -0 -0 -0 -0 -0 -0 -0 -0 -0 -1 -0 -0 -0 -0 -0 -0 -0 -0 -0 -0 -0 -0 -0 -0 -0 -0 -0 -0 -0 -0 -0 -0 -0 -0
-0 -0 -0 -0 -0 -1 -0 -0 -0 -0 -0 -0 -0 -0 -0 -0 -0 -0 -0 -0 -0 -0 -1 -0 -0 -0 -0 -4 -0 -0 -0 -0 -0 -0 -0 -0 -0 -0 -0 -0 -0 -0 -0 -0 -0 -0 -0
-1 -0 -0 -9 -0 -0 -0 -0 -0 -0 -0 -0 -0 -0 -0 -0 -0 -0 -0 -0 -0 -0 -0 -0 -0 -0 -0 -0 -0 -0 -0 -1 -0 -0 -0 -0 -0 -0 -0 -0 -0 -0 -0 -0 -0 -0 -0
-0 -0 -0 -0 -0 -1 -1 -1 -0 -3 -0 -0 -0 -0 -0 -0 -0 -0 -0 -0 -0 -0 -0 -0 -0 -0 -0 -0 -0 -0 -0 -0 -0 -0 -2 -0 -0 -0 -0 -0 -0 -0 -10 -27 -23 -15 -0
-0 -0 -0 -0 -0 -0 -0 -0 -1 -5 -8 -1 -0 -0 -0 -0 -0 -0 -3 -0 -0 -0 -0 -0 -0 -0 -0 -0 -0 -0 -0 -0 -0 -0 -0 -0 -0 -0 -0 -0 -0 -0 -10 -4 -2 -4 -0
-0 -2 -8 -3 -0 -0 -0 -0 -0 -0 -0 -0 -3 -16 -14 -0 -12 -0 -0 -0 -0 -0 -0 -0 -0 -0 -0 -0 -0 -0 -0 -0 -0 -0 -0 -0 -0 -0 -0 -0 -0 -0 -0 -0 -0 -0 -0
-0 -0 -0 -0 -4 -7 -0 -1 -7 -0 -0 -0 -0 -0 -0 -0 -0 -0 -0 -0 -0 -0 -0 -0 -0 -0 -0 -0 -15 -14 -33 -0 -0 -0 -0 -0 -0 -0 -0 -0 -0 -0 -11 -0 -5 -0 -0
-0 -0 -0 -0 -0 -0 -3 -0 -0 -0 -0 -0 -0 -0 -0 -2 -12 -0 -0 -0 -0 -0 -0 -0 -0 -0 -12 -0 -16 -6 -5 -0 -0 -0 -0 -31 -0 -0 -0 -0 -0 -0 -0 -0 -6 -4 -8
-0 -0 -0 -0 -0 -0 -2 -1 -1 -3 -0 -1 -0 -0 -0 -2 -1 -0 -0 -0 -0 -0 -0 -0 -0 -0 -0 -5 -0 -2 -14 -14 -0 -0 -0 -37 -20 -0 -0 -0 -0 -0 -0 -12 -7 -19 -5
-0 -0 -0 -0 -0 -0 -0 -0 -1 -7 -1 -0 -0 -0 -0 -0 -0 -0 -0 -0 -0 -0 -0 -0 -0 -0 -0 -0 -0 -14 -0 -10 -0 -0 -35 -0 -1 -0 -0 -0 -0 -0 -6 -33 -12 -0 -18
-0 -0 -0 -0 -0 -0 -0 -0 -0 -1 -5 -0 -0 -0 -0 -2 -1 -0 -0 -0 -0 -0 -0 -0 -0 -0 -0 -0 -0 -0 -0 -0 -0 -0 -0 -0 -0 -0 -0 -0 -0 -0 -0 -0 -0 -0 -13
-0 -0 -1 -3 -0 -0 -0 -0 -0 -2 -0 -0 -0 -0 -0 -0 -0 -0 -0 -0 -0 -0 -0 -0 -0 -0 -0 -0 -0 -0 -0 -0 -3 -18 -0 -4 -0 -0 -0 -0 -0 -0 -0 -0 -0 -0 -0
-2 -0 -0 -0 -0 -3 -0 -0 -0 -1 -0 -0 -0 -0 -0 -0 -0 -0 -0 -0 -0 -0 -0 -0 -0 -0 -0 -0 -0 -0 -0 -0 -0 -0 -5 -5 -1 -0 -0 -5 -0 -0 -0 -0 -0 -0 -0
-0 -4 -3 -4 -4 -0 -0 -0 -2 -6 -1 -0 -0 -0 -0 -0 -0 -0 -0 -0 -0 -0 -0 -0 -0 -0 -0 -0 -0 -0 -0 -0 -0 -0 -0 -0 -3 -0 -0 -0 -0 -0 -0 -0 -0 -0 -0
-1 -3 -3 -0 -0 -0 -0 -0 -1 -5 -0 -2 -0 -0 -0 -0 -0 -0 -0 -0 -0 -0 -0 -0 -0 -0 -0 -0 -0 -0 -0 -0 -0 -0 -0 -0 -0 -0 -0 -0 -0 -0 -0 -0 -0 -0 -0
-0 -0 -0 -0 -0 -0 -3 -2 -0 -6 -0 -0 -0 -0 -0 -0 -0 -0 -0 -0 -0 -0 -0 -0 -0 -0 -0 -0 -0 -0 -0 -0 -0 -0 -0 -0 -0 -0 -0 -0 -0 -0 -0 -0 -0 -0 -0
-0 -0 -0 -1 -0 -2 -11 -0 -0 -5 -1 -1 -0 -0 -0 -0 -0 -0 -0 -0 -0 -0 -0 -0 -0 -0 -0 -1 -0 -0 -49 -47 -0 -0 -0 -0 -0 -0 -0 -0 -0 -0 -0 -0 -0 -0 -0
-0 -0 -0 -0 -0 -6 -15 -0 -1 -8 -1 -1 -0 -0 -0 -0 -0 -0 -0 -0 -0 -0 -0 -0 -0 -0 -0 -0 -41 -1 -62 -27 -15 -0 -0 -0 -0 -0 -0 -0 -0 -0 -0 -0 -0 -0 -0
-0 -0 -0 -0 -10 -0 -0 -0 -2 -9 -1 -0 -0 -0 -0 -0 -0 -0 -0 -0 -0 -0 -0 -0 -4 -1 -0 -0 -0 -0 -16 -0 -19 -9 -0 -0 -0 -0 -0 -0 -0 -0 -0 -0 -0 -0 -0
-9 -29 -4 -2 -7 -0 -0 -0 -1 -0 -1 -0 -0 -0 -0 -0 -0 -0 -0 -0 -0 -0 -0 -0 -0 -0 -0 -0 -0 -0 -0 -0 -0 -0 -0 -3 -19 -0 -0 -0 -0 -0 -7 -0 -0 -0 -0
-4 -0 -0 -2 -1 -0 -0 -0 -1 -0 -0 -0 -0 -0 -0 -0 -0 -0 -0 -0 -0 -0 -0 -0 -0 -0 -8 -0 -0 -0 -0 -0 -0 -0 -0 -0 -0 -0 -0 -0 -0 -0 -0 -0 -0 -0 -0
Wind_Speed
34 34 34 34 35 34 33 35 35 37 37 37 39 38 39 37 36 38 38 38 37 36 36 36 39 41 38 36 27 27 30 23 28 26 26 26 26 24 25 22 23 27 29 31 28 26 25
38 39 38 39 38 39 39 36 36 39 38 35 39 38 38 39 38 38 39 38 37 37 37 37 39 38 35 36 28 21 22 29 33 34 31 23 24 21 27 26 26 27 33 38 39 37 30
41 40 42 42 39 40 40 41 40 39 39 38 38 39 40 39 40 39 38 38 38 39 40 39 38 35 32 27 41 48 39 34 32 26 30 27 22 20 22 25 24 27 39 41 37 30 32
41 42 42 41 44 42 41 42 42 41 40 39 40 40 40 40 40 41 40 39 40 41 41 40 36 34 39 31 37 47 32 38 30 17 13 21 15 18 22 28 32 36 38 40 26 25 27
41 41 41 42 42 43 41 40 40 40 39 38 38 37 37 37 39 41 42 43 41 41 40 36 35 33 44 33 26 28 14 17 18 17 18 21 16 22 22 27 35 27 37 35 39 29 30
38 38 38 39 40 40 39 39 41 42 40 40 39 38 39 38 37 38 38 40 39 40 36 34 33 35 32 26 21 19 16 17 22 28 27 23 22 23 22 22 29 33 33 34 35 25 29
35 36 35 35 35 35 35 36 36 38 38 39 40 39 38 38 38 36 35 37 41 40 34 36 34 33 29 25 29 28 25 33 34 33 35 29 30 28 25 25 29 35 39 39 34 32 42
33 33 34 35 35 35 35 35 35 35 35 35 34 33 31 31 30 29 28 33 34 35 52 38 40 41 38 39 47 33 31 41 38 41 34 36 38 31 30 30 33 37 39 41 44 35 35
34 35 35 36 36 36 37 36 35 34 34 32 31 29 27 26 25 26 28 30 28 30 45 51 39 44 39 31 41 41 30 37 41 45 37 40 41 33 33 34 35 38 39 41 43 39 39
34 35 36 37 37 38 38 37 36 35 34 33 31 29 27 25 31 29 32 27 22 23 43 50 38 38 30 26 40 31 28 28 33 41 37 44 44 44 38 39 34 43 33 36 39 40 45
36 37 39 40 39 37 37 37 36 34 33 31 31 29 27 25 30 31 28 21 19 22 49 34 31 24 22 22 31 28 21 21 33 32 28 38 37 34 40 38 29 41 32 32 34 37 41
38 39 39 39 38 39 39 37 36 34 32 29 27 28 29 28 30 28 23 21 20 37 51 37 30 30 30 31 31 24 23 17 23 31 33 37 33 32 36 35 34 35 39 40 39 39 46
39 39 39 39 38 38 39 37 35 32 31 30 28 28 27 27 33 26 21 23 41 48 34 43 41 34 35 37 36 32 28 26 28 30 34 33 37 32 29 31 27 27 29 37 39 39 45
38 39 40 40 39 37 36 37 35 33 34 34 33 32 32 30 26 26 24 36 52 42 45 32 33 34 42 35 38 33 34 34 31 31 32 37 44 29 29 35 32 29 27 34 42 41 43
39 38 38 39 40 38 38 38 36 34 35 37 37 34 34 34 30 28 35 49 50 46 40 42 45 43 41 41 38 34 38 40 37 33 35 33 40 27 25 23 24 31 35 32 41 37 39
38 38 38 38 37 37 37 36 36 36 37 36 35 35 38 30 27 32 42 52 43 37 38 37 47 42 49 43 38 38 37 35 40 32 32 35 44 33 26 22 22 27 23 31 32 44 45
36 36 36 36 35 34 33 34 35 36 36 33 33 36 30 27 25 34 48 44 42 37 39 39 40 44 44 44 45 47 40 35 32 33 34 37 39 39 28 32 33 30 31 28 28 32 42
36 36 34 34 33 34 32 30 27 28 29 32 30 39 23 19 34 37 47 40 35 41 33 36 36 42 42 41 42 39 44 35 25 25 35 33 36 46 40 27 28 30 34 33 39 40 36
36 36 35 35 35 33 33 32 30 26 22 21 28 31 23 19 37 40 38 40 36 39 39 38 37 34 32 35 40 41 46 40 40 41 32 31 34 33 32 32 31 35 31 32 33 31 38
36 34 33 34 34 32 30 30 26 24 20 21 25 27 23 22 24 28 30 34 35 27 35 37 39 39 42 48 43 43 47 42 45 43 35 33 42 43 48 37 25 30 30 29 30 37 33
40 40 37 39 36 31 28 25 23 20 17 18 22 24 20 24 28 29 29 29 32 34 31 32 34 32 34 38 44 40 40 41 41 42 38 40 50 48 44 39 37 39 34 33 33 35 37
40 41 42 43 37 32 30 27 25 20 18 21 23 24 22 25 27 25 25 27 27 26 28 33 37 38 36 42 43 50 46 42 40 37 37 36 44 39 46 36 35 36 32 29 32 30 32
40 38 40 39 30 27 28 27 26 23 18 21 21 19 21 24 24 22 24 24 26 23 26 28 29 33 42 44 40 42 43 44 44 41 40 34 38 42 50 37 37 42 42 36 36 35 37
31 30 34 32 24 24 26 29 27 24 20 21 22 20 25 30 27 27 28 28 28 26 33 35 33 36 34 37 39 41 44 48 48 47 35 37 32 32 37 32 46 38 33 33 35 33 33
27 25 23 27 27 17 25 24 23 24 19 23 21 19 20 26 24 26 28 29 30 33 34 34 32 30 31 32 31 32 34 37 41 45 42 38 33 33 32 33 34 30 31 30 30 35 31
22 17 14 40 41 14 18 23 26 26 14 21 19 15 17 19 23 19 21 21 25 26 21 20 21 22 23 24 23 27 29 27 28 30 27 32 33 34 29 33 35 30 23 16 19 37 22
17 11 32 31 20 7 18 15 32 20 17 18 19 11 14 18 17 14 17 17 19 18 17 18 19 19 18 20 21 23 22 24 27 25 26 30 35 38 36 33 28 21 21 18 21 23 16
4 12 26 24 3 5 11 29 35 35 34 18 14 11 13 16 17 11 12 15 15 16 16 17 17 18 18 20 20 20 21 22 23 23 25 25 31 32 31 32 31 17 14 21 18 17 15
19 23 18 23 4 3 29 32 36 38 35 15 11 7 10 14 16 16 15 10 10 8 14 16 18 19 19 19 21 22 24 22 23 23 21 21 21 23 21 21 18 17 18 19 16 15 15
Wind_Direction
292 293 294 294 296 297 298 298 298 298 299 300 298 300 300 303 306 305 307 309 313 316 318 320 321 320 322 316 313 316 312 316 318 323 318 312 306 304 298 304 303 296 298 297 301 304 305
290 290 291 292 294 293 294 296 296 296 298 298 297 297 299 300 301 303 304 306 310 312 313 315 316 318 317 305 316 323 318 316 311 307 303 303 303 305 300 298 296 302 299 293 293 297 299
288 289 289 290 292 292 294 293 293 294 294 295 295 295 296 297 298 300 302 304 307 308 307 310 312 314 307 263 299 293 299 304 309 309 299 298 293 289 306 305 306 303 294 294 294 300 297
288 288 289 290 290 291 292 292 292 292 292 292 292 292 293 294 295 296 298 301 302 303 303 305 309 309 301 311 305 290 297 292 299 313 310 311 302 285 288 297 298 296 296 293 307 307 304
290 291 290 290 291 291 292 293 293 293 293 293 293 293 293 293 293 293 294 297 298 300 300 305 305 305 302 314 311 307 302 304 319 320 316 313 308 294 292 289 293 297 292 293 295 299 299
295 294 294 294 294 294 294 294 293 292 294 293 294 295 294 293 294 295 296 295 299 299 300 301 297 300 300 306 317 309 309 301 304 312 307 303 299 292 285 282 280 292 291 294 295 307 303
298 297 299 300 300 300 300 298 297 296 297 296 295 295 294 294 294 296 298 299 296 296 290 282 288 288 297 301 302 297 293 291 293 295 290 293 285 274 272 267 278 287 289 290 296 300 295
300 301 301 301 303 301 300 299 299 299 300 300 300 299 300 301 300 299 296 292 292 301 293 284 281 279 281 291 288 280 287 283 285 284 285 281 268 278 282 277 279 281 282 285 291 297 295
299 299 301 300 301 301 300 301 297 298 299 300 300 300 300 302 303 300 295 293 304 305 291 289 284 285 282 278 275 280 275 280 275 279 276 269 272 278 275 278 276 276 277 284 286 294 292
300 300 300 300 300 300 299 299 299 296 296 296 296 296 297 300 296 296 294 301 304 310 292 288 292 292 283 284 291 291 265 269 280 279 274 277 274 274 280 274 274 278 282 283 285 288 288
302 300 301 301 299 298 298 297 298 299 299 295 293 292 292 289 295 291 301 305 305 307 287 293 289 302 294 281 302 299 300 263 274 281 279 280 281 272 265 268 275 280 287 285 285 284 289
300 300 301 301 300 300 296 295 293 295 297 298 298 297 295 289 289 295 302 302 297 280 277 286 288 285 284 284 294 300 296 292 293 281 281 276 290 280 277 275 266 277 282 284 284 283 280
298 299 300 299 299 300 302 293 291 289 290 291 294 297 296 298 289 292 294 291 279 271 286 282 280 282 278 282 283 283 281 277 280 283 282 287 277 279 282 281 279 275 277 282 280 274 275
298 296 294 294 295 297 298 298 300 295 291 289 287 287 288 286 296 300 282 275 272 277 268 288 292 285 277 280 280 276 276 274 272 281 285 284 284 276 270 264 273 267 262 271 279 280 283
299 298 296 294 294 294 293 293 292 297 301 297 288 284 280 279 277 284 280 267 272 273 280 281 277 282 281 281 279 277 269 274 274 268 274 280 283 288 285 277 255 269 262 262 280 285 287
301 300 299 297 297 295 291 289 292 290 293 302 295 283 279 281 277 274 272 271 276 278 285 283 277 276 274 277 277 273 274 281 273 269 271 280 281 281 286 282 270 265 275 274 269 278 280
304 303 301 300 300 300 297 295 289 290 290 294 291 285 288 284 276 269 265 271 276 281 279 281 280 279 277 278 274 272 276 279 284 280 272 273 274 278 276 271 269 267 264 276 279 275 280
304 305 303 302 300 298 296 296 297 298 297 281 283 277 301 288 268 271 269 274 278 278 285 283 283 278 280 280 279 277 271 271 282 289 279 277 275 269 268 279 278 274 271 260 268 274 278
306 304 301 300 299 298 294 290 290 293 297 292 285 282 285 283 275 271 276 276 279 279 278 279 281 285 289 285 286 275 275 275 276 274 278 285 278 267 279 278 277 270 269 279 275 277 272
305 303 301 299 296 293 293 289 285 285 287 288 287 285 277 271 277 280 283 281 282 293 283 278 278 283 283 280 282 283 284 282 279 270 269 272 270 274 270 276 281 274 276 276 277 281 269
305 302 298 295 290 285 283 285 281 277 275 282 280 280 285 279 273 275 281 288 285 285 287 289 286 283 288 285 285 284 289 289 286 274 270 262 268 270 270 272 276 278 277 272 272 273 279
302 301 298 294 286 276 272 274 276 271 267 265 275 277 284 282 282 277 279 286 288 290 289 286 284 288 288 284 284 283 287 287 283 288 277 263 267 266 265 266 272 274 273 269 277 278 278
299 299 300 297 286 271 268 266 268 264 256 267 267 280 286 281 279 279 281 286 290 293 292 290 293 293 288 289 291 286 284 281 276 280 276 278 265 265 267 268 269 270 261 268 273 274 276
299 298 299 298 284 273 267 264 263 259 243 262 270 272 276 276 276 279 287 289 289 291 290 290 292 293 297 300 298 292 285 277 272 267 272 274 286 270 271 264 264 275 274 266 268 276 274
297 293 295 296 279 266 267 261 259 258 237 255 263 271 277 277 280 282 283 288 293 292 291 291 292 297 306 303 296 292 287 285 273 266 263 263 273 278 275 270 279 280 276 273 272 275 276
299 285 287 257 232 262 266 262 252 253 221 247 255 267 279 283 282 289 293 298 299 304 306 308 309 307 316 310 298 288 288 291 282 276 274 260 262 268 277 273 274 286 285 279 284 280 292
304 286 263 247 260 210 264 266 239 242 233 237 251 262 281 280 289 299 294 308 313 322 322 322 324 325 325 318 306 293 291 293 280 285 275 261 261 262 267 277 282 287 286 280 277 287 302
4 296 251 252 212 189 269 237 224 219 221 235 248 261 283 283 291 311 314 309 320 327 330 333 333 330 323 317 313 300 294 294 289 286 285 283 268 266 268 271 278 300 304 285 296 311 306
209 205 263 252 281 142 224 214 200 207 183 235 259 276 285 291 299 308 312 321 331 340 333 327 325 320 312 314 312 300 289 294 293 280 289 281 298 283 287 287 312 304 296 305 319 319 315